Regional Weather Roundup
Issued by NWS

Home | Current Version | Previous Version | Graphics & Text | Print | Product List | Glossary On
Versions: 1 2 3 4 5 6 7 8 9 10 11 12 13 14 15 16 17 18 19 20 21 22 23 24 25 26 27 28 29 30 31 32 33 34 35 36 37 38 39 40 41 42 43 44 45 46 47 48 49 50
000
ASUS43 KOAX 311110
RWRNE

WEATHER ROUNDUP FOR NEBRASKA
NATIONAL WEATHER SERVICE OMAHA NE
600 AM CDT SUN AUG 31 2014

NOTES: SATELLITE DATA IS BEING USED TO AUGMENT CLOUD COVER ABOVE
       12000 FEET.
       "FAIR" INDICATES FEW OR NO CLOUDS BELOW 12,000 FEET WITH NO
       SIGNIFICANT WEATHER AND/OR OBSTRUCTIONS TO VISIBILITY.

  * THESE STATIONS DO NOT REPORT WEATHER SUCH AS RAIN...SNOW OR FOG.

NEZ001>004-019>022-054>056-311200-
NEBRASKA PANHANDLE

CITY           SKY/WX    TMP DP  RH WIND       PRES   REMARKS
SCOTTSBLUFF    MOCLDY    55  53  93 N8        29.83R
ALLIANCE       PTCLDY    53  49  86 NW6       29.80R
CHADRON        PTCLDY    53  51  93 SW8       29.79R
KIMBALL        CLOUDY    58  49  72 SW3       29.85F
SIDNEY         MOCLDY    62  49  62 S10       29.84F
$$

NEZ057>060-069>072-079>082-311200-
SOUTHWEST NEBRASKA

CITY           SKY/WX    TMP DP  RH WIND       PRES   REMARKS
NORTH PLATTE   PTCLDY    61  56  83 CALM      29.76F
IMPERIAL       CLEAR     60  53  77 S7        29.79F
LEXINGTON      CLOUDY    71  60  67 SW6       29.75S
MCCOOK         MOCLDY    71  54  54 SW10      29.78R
OGALLALA       CLEAR     54  52  94 CALM      29.79S
$$

NEZ005>010-023>029-035>040-094-311200-
NORTH CENTRAL NEBRASKA

CITY           SKY/WX    TMP DP  RH WIND       PRES   REMARKS
VALENTINE      PTCLDY    57  55  93 SW6       29.72S
AINSWORTH      PTCLDY    63  56  79 SW5       29.73F
BROKEN BOW     CLOUDY    63  58  83 SE6       29.73F
O`NEILL        PTCLDY    67  62  85 S7        29.70F
ORD            PTCLDY    63  60  90 S3        29.71F
THEDFORD       PTCLDY    61  56  84 W7        29.76S
$$

NEZ041-046>049-061>064-073>077-083>087-311200-
SOUTH CENTRAL NEBRASKA

CITY           SKY/WX    TMP DP  RH WIND       PRES   REMARKS
GRAND ISLAND   PTCLDY    72  59  63 S15       29.76F
AURORA         MOCLDY    66  62  87 S10       29.77F
HASTINGS       MOCLDY    74  56  53 S15G24    29.77F
HEBRON         MOCLDY    71  60  67 NW5       29.82R
HOLDREGE       CLOUDY    68  59  73 S13       29.77F
KEARNEY *      MOCLDY    70  57  64 S16G22    29.76F
YORK           MOCLDY    66 N/A N/A S8        29.80S
$$

NEZ011>018-030>034-042>045-311200-
NORTHEAST NEBRASKA

CITY           SKY/WX    TMP DP  RH WIND       PRES   REMARKS
NORFOLK        PTCLDY    65  62  90 SE6       29.75F
ALBION         PTCLDY    64  61  88 SE6       29.74F
BLAIR          CLEAR     71  65  81 S14G20    29.80S
FREMONT        CLEAR     70  64  81 SE9       29.78F
TEKAMAH        CLEAR     65  63  93 SE5       29.77F
WAYNE          PTCLDY    63  62  96 SE7       29.76F
$$

NEZ050>053-065>068-078-088>093-311200-
SOUTHEAST NEBRASKA

CITY           SKY/WX    TMP DP  RH WIND       PRES   REMARKS
LINCOLN        CLEAR     68  62  81 S10       29.79F
OMAHA EPPLEY   CLEAR     71  65  81 S17       29.80F
BEATRICE       PTCLDY    68  63  84 S9        29.82S
FALLS CITY     CLEAR     66  64  93 SE7       29.84R
NEBRASKA CITY  CLEAR     66  66 100 S7        29.83F
PLATTSMOUTH    CLEAR     69  65  87 S9        29.82F
$$

NEZ044-045-051>053-067-311200-
OMAHA AREA

CITY           SKY/WX    TMP DP  RH WIND       PRES   REMARKS
OMAHA EPPLEY   CLEAR     71  65  81 S17       29.80F
BLAIR          CLEAR     71  65  81 S14G20    29.80S
FREMONT        CLEAR     70  64  81 SE9       29.78F
MILLARD        CLEAR     69  65  88 SE3       29.81S
OFFUTT AFB     CLEAR     69  69  99 SE10      29.81S
PLATTSMOUTH    CLEAR     69  65  87 S9        29.82F
WAHOO          FAIR      66  63  89 SE7       29.78F
$$


USA.gov is the U.S. government's official web portal to all federal, state and local government web resources and services.